Погода в Касабланке

Марокко     33°34′26″N   7°36′10″W
темп.,
°C
ветер,
м/с
пор.,
м/с
влажн.,
%
обл.,
%
осадки,
мм/ч
давл.,
гПа
погр.,
м
15 мая, сб
сб1500:00+16св497657 0.0 1017276
03:00+15св39855 0.0 1015280
06:00+15св39860 0.0 1015260
09:00+23ссв47510 0.0 1015492
12:00+26с66410 0.0 1015663
15:00+25ссв69450 0.0 1014525
18:00+23ссв7124331 0.0 1013491
21:00+20с5136140 0.0 1014366
16 мая, вс
вс1600:00+18св3107215 0.0 1014269
04:00+17ссв27815 0.0 1013214
07:00+18св312885 0.0 1013407
10:00+24ссв611545 0.0 1013545
13:00+26с710470 0.0 1013654
16:00+25с712510 0.0 1013674
19:00+23с612564 0.0 1013580
22:00+19сз24815 0.0 1016211
17 мая, пн
пн1701:00+19з2385100 0.0 1017203
04:00+18зсз239092 0.0 1017190
07:00+18сз249236 0.0 1018192
10:00+22с34672 0.0 1020706
13:00+25с55480 0.0 1019934
16:00+25с56490 0.0 1018771
19:00+21с56682 0.0 1019549
22:00+18ссв358831 0.0 1021326
18 мая, вт
вт1801:00+17ссв359115 0.0 1020234
04:00+16св249426 0.0 1019166
07:00+16св26913 0.0 1020184
10:00+23ссв575674 0.0 1020610
13:00+26с684687 0.0 1019758
16:00+24с684442 0.0 1018618
19:00+22ссв595175 0.0 1018459
22:00+18св387691 0.0 1019241
19 мая, ср
ср1901:00+18ссв3987100 0.0 1018253
04:00+18ссв2693100 0.0 1016220
07:00+17ссв129494 0.0 101698
10:00+24ссв35593 0.0 1016444
13:00+29ссв673977 0.0 1015725
16:00+29с573839 0.0 1015562
19:00+25с465191 0.0 1015309
22:00+22ссв2467100 0.0 1016116